,,PressureMeas_1m,,PRMeasQMR101_1,,RHStat155_1m_1,,SRMeasQMS101R_1m,,TAStat155_1m_1,,GenWind_1,,GenWind_1,
2019-03-10, 00:00:06,VALID,920.303,VALID,0.0,VALID,95.455,VALID,0.0,VALID,20.794,INVALID,360.0,VALID,0.0,
2019-03-10, 00:01:06,VALID,920.283,VALID,0.0,VALID,95.499,VALID,0.005,VALID,20.773,INVALID,360.0,VALID,0.0,
2019-03-10, 00:02:06,VALID,920.28,VALID,0.0,VALID,95.694,VALID,0.001,VALID,20.755,INVALID,360.0,VALID,0.0,
2019-03-10, 00:03:06,VALID,920.268,VALID,0.0,VALID,95.506,VALID,0.017,VALID,20.708,INVALID,360.0,VALID,0.0,
2019-03-10, 00:04:06,VALID,920.213,VALID,0.0,VALID,95.686,VALID,0.009,VALID,20.67,INVALID,360.0,VALID,0.0,
2019-03-10, 00:05:06,VALID,920.179,VALID,0.0,VALID,95.96,VALID,-0.003,VALID,20.643,INVALID,360.0,VALID,0.0,
2019-03-10, 00:06:06,VALID,920.19,VALID,0.0,VALID,96.08,VALID,0.016,VALID,20.618,INVALID,360.0,VALID,0.0,
2019-03-10, 00:07:06,VALID,920.191,VALID,0.0,VALID,96.23,VALID,0.013,VALID,20.616,INVALID,360.0,VALID,0.0,
2019-03-10, 00:08:06,VALID,920.187,VALID,0.0,VALID,96.297,VALID,0.006,VALID,20.615,INVALID,360.0,VALID,0.0,
2019-03-10, 00:09:06,VALID,920.206,VALID,0.0,VALID,96.367,VALID,0.001,VALID,20.613,INVALID,360.0,VALID,0.0,
2019-03-10, 00:10:06,VALID,920.217,VALID,0.0,VALID,96.456,VALID,0.004,VALID,20.625,INVALID,360.0,VALID,0.0,
2019-03-10, 00:11:06,VALID,920.24,VALID,0.0,VALID,96.324,VALID,-0.008,VALID,20.624,INVALID,360.0,VALID,0.0,
2019-03-10, 00:12:06,VALID,920.259,VALID,0.0,VALID,96.281,VALID,0.018,VALID,20.623,INVALID,360.0,VALID,0.0,
2019-03-10, 00:13:06,VALID,920.271,VALID,0.0,VALID,96.4,VALID,0.032,VALID,20.649,INVALID,360.0,VALID,0.0,
2019-03-10, 00:14:06,VALID,920.279,VALID,0.0,VALID,96.224,VALID,0.044,VALID,20.611,INVALID,360.0,VALID,0.0,
2019-03-10, 00:15:06,VALID,920.308,VALID,0.0,VALID,96.348,VALID,0.031,VALID,20.597,INVALID,360.0,VALID,0.0,
2019-03-10, 00:16:06,VALID,920.339,VALID,0.0,VALID,96.451,VALID,0.033,VALID,20.612,INVALID,360.0,VALID,0.0,
2019-03-10, 00:17:06,VALID,920.344,VALID,0.0,VALID,96.474,VALID,0.028,VALID,20.626,INVALID,360.0,VALID,0.0,
2019-03-10, 00:18:06,VALID,920.367,VALID,0.0,VALID,96.316,VALID,0.034,VALID,20.632,INVALID,360.0,VALID,0.0,
2019-03-10, 00:19:06,VALID,920.382,VALID,0.0,VALID,96.059,VALID,0.04,VALID,20.642,INVALID,360.0,VALID,0.0,
2019-03-10, 00:20:06,VALID,920.35,VALID,0.0,VALID,95.945,VALID,0.029,VALID,20.656,INVALID,360.0,VALID,0.0,
2019-03-10, 00:21:06,VALID,920.34,VALID,0.0,VALID,96.076,VALID,0.032,VALID,20.67,INVALID,360.0,VALID,0.0,
2019-03-10, 00:22:06,VALID,920.292,VALID,0.0,VALID,95.976,VALID,0.045,VALID,20.644,INVALID,360.0,VALID,0.0,
2019-03-10, 00:23:06,VALID,920.293,VALID,0.0,VALID,95.829,VALID,0.036,VALID,20.591,INVALID,360.0,VALID,0.0,
2019-03-10, 00:24:06,VALID,920.28,VALID,0.0,VALID,95.958,VALID,0.044,VALID,20.596,INVALID,360.0,VALID,0.0,
2019-03-10, 00:25:06,VALID,920.268,VALID,0.0,VALID,95.777,VALID,0.035,VALID,20.586,INVALID,360.0,VALID,0.0,
2019-03-10, 00:26:06,VALID,920.269,VALID,0.0,VALID,95.571,VALID,0.033,VALID,20.595,INVALID,360.0,VALID,0.0,
2019-03-10, 00:27:06,VALID,920.258,VALID,0.0,VALID,95.453,VALID,0.033,VALID,20.615,INVALID,360.0,VALID,0.0,
2019-03-10, 00:28:06,VALID,920.286,VALID,0.0,VALID,95.338,VALID,0.008,VALID,20.664,INVALID,360.0,VALID,0.0,
2019-03-10, 00:29:06,VALID,920.29,VALID,0.0,VALID,94.962,VALID,0.007,VALID,20.711,INVALID,360.0,VALID,0.0,
2019-03-10, 00:30:06,VALID,920.273,VALID,0.0,VALID,94.485,VALID,0.008,VALID,20.716,INVALID,360.0,VALID,0.0,
2019-03-10, 00:31:06,VALID,920.273,VALID,0.0,VALID,94.458,VALID,0.006,VALID,20.713,INVALID,360.0,VALID,0.0,
2019-03-10, 00:32:06,VALID,920.264,VALID,0.0,VALID,94.637,VALID,0.009,VALID,20.739,INVALID,360.0,VALID,0.0,
2019-03-10, 00:33:06,VALID,920.283,VALID,0.0,VALID,94.996,VALID,0.018,VALID,20.724,INVALID,360.0,VALID,0.0,
2019-03-10, 00:34:06,VALID,920.294,VALID,0.0,VALID,95.103,VALID,0.009,VALID,20.668,INVALID,360.0,VALID,0.0,
2019-03-10, 00:35:06,VALID,920.323,VALID,0.0,VALID,95.451,VALID,-0.003,VALID,20.662,INVALID,360.0,VALID,0.0,
2019-03-10, 00:36:06,VALID,920.331,VALID,0.0,VALID,95.522,VALID,0.015,VALID,20.647,INVALID,360.0,VALID,0.0,
2019-03-10, 00:37:06,VALID,920.365,VALID,0.0,VALID,95.558,VALID,0.023,VALID,20.628,INVALID,360.0,VALID,0.0,
2019-03-10, 00:38:06,VALID,920.374,VALID,0.0,VALID,95.567,VALID,0.034,VALID,20.644,INVALID,360.0,VALID,0.0,
2019-03-10, 00:39:06,VALID,920.374,VALID,0.0,VALID,95.244,VALID,0.021,VALID,20.673,INVALID,360.0,VALID,0.0,
2019-03-10, 00:40:06,VALID,920.364,VALID,0.0,VALID,95.11,VALID,0.018,VALID,20.716,INVALID,360.0,VALID,0.0,
2019-03-10, 00:41:06,VALID,920.359,VALID,0.0,VALID,95.043,VALID,0.025,VALID,20.76,INVALID,360.0,VALID,0.0,
2019-03-10, 00:42:06,VALID,920.366,VALID,0.0,VALID,94.914,VALID,0.011,VALID,20.787,INVALID,360.0,VALID,0.0,
2019-03-10, 00:43:06,VALID,920.392,VALID,0.0,VALID,94.677,VALID,0.009,VALID,20.792,INVALID,360.0,VALID,0.0,
2019-03-10, 00:44:06,VALID,920.41,VALID,0.0,VALID,94.599,VALID,0.024,VALID,20.817,INVALID,360.0,VALID,0.0,
2019-03-10, 00:45:06,VALID,920.428,VALID,0.0,VALID,94.42,VALID,0.041,VALID,20.836,INVALID,360.0,VALID,0.0,
2019-03-10, 00:46:06,VALID,920.443,VALID,0.0,VALID,94.484,VALID,0.027,VALID,20.867,INVALID,360.0,VALID,0.0,
2019-03-10, 00:47:06,VALID,920.433,VALID,0.0,VALID,94.25,VALID,0.036,VALID,20.887,INVALID,360.0,VALID,0.0,
2019-03-10, 00:48:06,VALID,920.436,VALID,0.0,VALID,93.765,VALID,0.022,VALID,20.922,INVALID,360.0,VALID,0.0,
2019-03-10, 00:49:06,VALID,920.4,VALID,0.0,VALID,93.489,VALID,0.021,VALID,20.978,INVALID,360.0,VALID,0.0,
2019-03-10, 00:50:06,VALID,920.389,VALID,0.0,VALID,93.098,VALID,0.02,VALID,21.004,INVALID,360.0,VALID,0.0,
2019-03-10, 00:51:06,VALID,920.355,VALID,0.0,VALID,93.167,VALID,0.022,VALID,21.036,INVALID,360.0,VALID,0.0,
2019-03-10, 00:52:06,VALID,920.316,VALID,0.0,VALID,93.267,VALID,0.024,VALID,21.056,INVALID,360.0,VALID,0.0,
2019-03-10, 00:53:06,VALID,920.299,VALID,0.0,VALID,93.46,VALID,0.041,VALID,21.073,INVALID,360.0,VALID,0.0,
2019-03-10, 00:54:06,VALID,920.269,VALID,0.0,VALID,93.185,VALID,0.018,VALID,21.094,INVALID,360.0,VALID,0.0,
2019-03-10, 00:55:06,VALID,920.261,VALID,0.0,VALID,93.24,VALID,0.028,VALID,21.116,INVALID,360.0,VALID,0.0,
2019-03-10, 00:56:06,VALID,920.277,VALID,0.0,VALID,93.331,VALID,0.044,VALID,21.115,INVALID,360.0,VALID,0.0,
2019-03-10, 00:57:06,VALID,920.277,VALID,0.0,VALID,93.038,VALID,0.029,VALID,21.106,INVALID,360.0,VALID,0.0,
2019-03-10, 00:58:06,VALID,920.254,VALID,0.0,VALID,92.835,VALID,0.029,VALID,21.083,INVALID,360.0,VALID,0.0,
2019-03-10, 00:59:06,VALID,920.231,VALID,0.0,VALID,93.011,VALID,0.031,VALID,21.099,INVALID,360.0,VALID,0.0,
2019-03-10, 01:00:06,VALID,920.212,VALID,0.0,VALID,93.218,VALID,0.029,VALID,21.12,INVALID,360.0,VALID,0.0,
2019-03-10, 01:01:06,VALID,920.194,VALID,0.0,VALID,93.353,VALID,0.035,VALID,21.106,INVALID,360.0,VALID,0.0,
2019-03-10, 01:02:06,VALID,920.175,VALID,0.0,VALID,93.353,VALID,0.028,VALID,21.094,INVALID,360.0,VALID,0.0,
2019-03-10, 01:03:06,VALID,920.182,VALID,0.0,VALID,93.316,VALID,0.042,VALID,21.071,INVALID,360.0,VALID,0.0,
2019-03-10, 01:04:06,VALID,920.174,VALID,0.0,VALID,93.248,VALID,0.037,VALID,21.028,INVALID,360.0,VALID,0.0,
2019-03-10, 01:05:06,VALID,920.174,VALID,0.0,VALID,93.531,VALID,0.031,VALID,20.995,INVALID,360.0,VALID,0.0,
2019-03-10, 01:06:06,VALID,920.178,VALID,0.0,VALID,93.754,VALID,0.038,VALID,20.997,INVALID,360.0,VALID,0.0,
2019-03-10, 01:07:06,VALID,920.195,VALID,0.0,VALID,93.795,VALID,0.03,VALID,20.985,INVALID,360.0,VALID,0.0,
2019-03-10, 01:08:06,VALID,920.242,VALID,0.0,VALID,93.906,VALID,0.03,VALID,20.982,INVALID,360.0,VALID,0.0,
2019-03-10, 01:09:06,VALID,920.273,VALID,0.0,VALID,93.872,VALID,0.027,VALID,20.986,INVALID,360.0,VALID,0.0,
2019-03-10, 01:10:06,VALID,920.291,VALID,0.0,VALID,93.774,VALID,0.037,VALID,20.993,INVALID,360.0,VALID,0.0,
2019-03-10, 01:11:06,VALID,920.257,VALID,0.0,VALID,93.824,VALID,0.026,VALID,20.998,INVALID,360.0,VALID,0.0,
2019-03-10, 01:12:06,VALID,920.214,VALID,0.0,VALID,94.113,VALID,0.039,VALID,21.038,INVALID,360.0,VALID,0.0,
2019-03-10, 01:13:06,VALID,920.185,VALID,0.0,VALID,94.184,VALID,0.023,VALID,21.03,INVALID,360.0,VALID,0.0,
2019-03-10, 01:14:06,VALID,920.148,VALID,0.0,VALID,94.186,VALID,0.025,VALID,20.992,INVALID,360.0,VALID,0.0,
2019-03-10, 01:15:06,VALID,920.088,VALID,0.0,VALID,94.359,VALID,0.053,VALID,20.96,INVALID,360.0,VALID,0.0,
2019-03-10, 01:16:06,VALID,920.069,VALID,0.0,VALID,94.49,VALID,0.038,VALID,20.949,INVALID,360.0,VALID,0.0,
2019-03-10, 01:17:06,VALID,920.056,VALID,0.0,VALID,94.437,VALID,0.049,VALID,20.946,INVALID,360.0,VALID,0.0,
2019-03-10, 01:18:06,VALID,920.036,VALID,0.0,VALID,94.413,VALID,0.01,VALID,20.955,INVALID,360.0,VALID,0.0,
2019-03-10, 01:19:06,VALID,920.045,VALID,0.0,VALID,94.458,VALID,0.028,VALID,20.949,INVALID,360.0,VALID,0.0,
2019-03-10, 01:20:06,VALID,920.053,VALID,0.0,VALID,94.762,VALID,0.02,VALID,20.963,INVALID,360.0,VALID,0.0,
2019-03-10, 01:21:06,VALID,920.043,VALID,0.0,VALID,94.806,VALID,0.028,VALID,20.95,INVALID,360.0,VALID,0.0,
2019-03-10, 01:22:06,VALID,920.034,VALID,0.0,VALID,94.774,VALID,0.021,VALID,20.953,INVALID,360.0,VALID,0.0,
2019-03-10, 01:23:06,VALID,919.994,VALID,0.0,VALID,95.308,VALID,0.018,VALID,21.0,INVALID,360.0,VALID,0.0,
2019-03-10, 01:24:06,VALID,919.987,VALID,0.0,VALID,95.201,VALID,0.013,VALID,20.965,INVALID,360.0,VALID,0.0,
2019-03-10, 01:25:06,VALID,919.949,VALID,0.0,VALID,95.264,VALID,0.043,VALID,20.958,INVALID,360.0,VALID,0.0,
2019-03-10, 01:26:06,VALID,919.918,VALID,0.0,VALID,95.571,VALID,0.043,VALID,20.94,INVALID,360.0,VALID,0.0,
2019-03-10, 01:27:06,VALID,919.883,VALID,0.0,VALID,95.448,VALID,0.032,VALID,20.865,INVALID,360.0,VALID,0.0,
2019-03-10, 01:28:06,VALID,919.881,VALID,0.0,VALID,95.751,VALID,0.025,VALID,20.838,INVALID,360.0,VALID,0.0,
2019-03-10, 01:29:06,VALID,919.843,VALID,0.0,VALID,95.69,VALID,0.01,VALID,20.796,INVALID,360.0,VALID,0.0,
2019-03-10, 01:30:06,VALID,919.806,VALID,0.0,VALID,95.845,VALID,0.003,VALID,20.8,INVALID,360.0,VALID,0.0,
2019-03-10, 01:31:06,VALID,919.753,VALID,0.0,VALID,96.028,VALID,0.01,VALID,20.783,INVALID,360.0,VALID,0.0,
2019-03-10, 01:32:06,VALID,919.707,VALID,0.0,VALID,95.883,VALID,-0.008,VALID,20.74,INVALID,360.0,VALID,0.0,
2019-03-10, 01:33:06,VALID,919.684,VALID,0.0,VALID,95.912,VALID,-0.008,VALID,20.715,INVALID,360.0,VALID,0.0,
2019-03-10, 01:34:06,VALID,919.627,VALID,0.0,VALID,96.526,VALID,-0.009,VALID,20.76,INVALID,360.0,VALID,0.0,
2019-03-10, 01:35:06,VALID,919.613,VALID,0.0,VALID,96.226,VALID,-0.001,VALID,20.677,INVALID,360.0,VALID,0.0,
2019-03-10, 01:36:06,VALID,919.589,VALID,0.0,VALID,96.06,VALID,-0.003,VALID,20.607,INVALID,360.0,VALID,0.0,
2019-03-10, 01:37:06,VALID,919.559,VALID,0.0,VALID,96.21,VALID,-0.005,VALID,20.569,INVALID,360.0,VALID,0.0,
2019-03-10, 01:38:06,VALID,919.532,VALID,0.0,VALID,96.591,VALID,-0.002,VALID,20.585,INVALID,360.0,VALID,0.0,
2019-03-10, 01:39:06,VALID,919.535,VALID,0.0,VALID,96.687,VALID,-0.007,VALID,20.567,INVALID,360.0,VALID,0.0,
2019-03-10, 01:40:06,VALID,919.517,VALID,0.0,VALID,96.454,VALID,-0.003,VALID,20.498,INVALID,360.0,VALID,0.0,
2019-03-10, 01:41:06,VALID,919.508,VALID,0.0,VALID,96.476,VALID,0.001,VALID,20.457,INVALID,360.0,VALID,0.0,
2019-03-10, 01:42:06,VALID,919.525,VALID,0.0,VALID,96.571,VALID,-0.003,VALID,20.423,INVALID,360.0,VALID,0.0,
2019-03-10, 01:43:06,VALID,919.547,VALID,0.0,VALID,96.641,VALID,0.004,VALID,20.381,INVALID,360.0,VALID,0.0,
2019-03-10, 01:44:06,VALID,919.566,VALID,0.0,VALID,96.801,VALID,0.026,VALID,20.368,INVALID,360.0,VALID,0.0,
2019-03-10, 01:45:06,VALID,919.577,VALID,0.0,VALID,96.914,VALID,0.02,VALID,20.35,INVALID,360.0,VALID,0.0,
2019-03-10, 01:46:06,VALID,919.552,VALID,0.0,VALID,96.929,VALID,0.003,VALID,20.319,INVALID,360.0,VALID,0.0,
2019-03-10, 01:47:06,VALID,919.568,VALID,0.0,VALID,97.034,VALID,0.005,VALID,20.315,INVALID,360.0,VALID,0.0,
2019-03-10, 01:48:06,VALID,919.543,VALID,0.0,VALID,97.151,VALID,-0.0,VALID,20.324,INVALID,360.0,VALID,0.0,
2019-03-10, 01:49:06,VALID,919.538,VALID,0.0,VALID,97.218,VALID,0.019,VALID,20.313,INVALID,360.0,VALID,0.0,
2019-03-10, 01:50:06,VALID,919.501,VALID,0.0,VALID,97.171,VALID,0.019,VALID,20.296,INVALID,360.0,VALID,0.0,
2019-03-10, 01:51:06,VALID,919.492,VALID,0.0,VALID,97.238,VALID,0.024,VALID,20.306,INVALID,360.0,VALID,0.0,
2019-03-10, 01:52:06,VALID,919.46,VALID,0.0,VALID,97.233,VALID,0.007,VALID,20.29,INVALID,360.0,VALID,0.0,
2019-03-10, 01:53:06,VALID,919.429,VALID,0.0,VALID,97.144,VALID,0.02,VALID,20.259,INVALID,360.0,VALID,0.0,
2019-03-10, 01:54:06,VALID,919.421,VALID,0.0,VALID,97.187,VALID,0.008,VALID,20.252,INVALID,360.0,VALID,0.0,
2019-03-10, 01:55:06,VALID,919.404,VALID,0.0,VALID,97.251,VALID,0.018,VALID,20.251,INVALID,360.0,VALID,0.0,
2019-03-10, 01:56:06,VALID,919.371,VALID,0.0,VALID,97.267,VALID,0.012,VALID,20.235,INVALID,360.0,VALID,0.0,
2019-03-10, 01:57:06,VALID,919.359,VALID,0.0,VALID,97.341,VALID,0.019,VALID,20.253,INVALID,360.0,VALID,0.0,
2019-03-10, 01:58:06,VALID,919.348,VALID,0.0,VALID,97.396,VALID,0.017,VALID,20.276,INVALID,360.0,VALID,0.0,
2019-03-10, 01:59:06,VALID,919.343,VALID,0.0,VALID,97.451,VALID,0.035,VALID,20.291,INVALID,360.0,VALID,0.0,
2019-03-10, 02:00:06,VALID,919.335,VALID,0.0,VALID,97.4,VALID,0.025,VALID,20.29,INVALID,360.0,VALID,0.0,
2019-03-10, 02:01:06,VALID,919.336,VALID,0.0,VALID,97.517,VALID,0.013,VALID,20.316,INVALID,360.0,VALID,0.0,
2019-03-10, 02:02:06,VALID,919.318,VALID,0.0,VALID,97.553,VALID,0.016,VALID,20.297,INVALID,360.0,VALID,0.0,
2019-03-10, 02:03:06,VALID,919.318,VALID,0.0,VALID,97.743,VALID,0.02,VALID,20.312,INVALID,360.0,VALID,0.0,
2019-03-10, 02:04:06,VALID,919.308,VALID,0.0,VALID,97.878,VALID,0.01,VALID,20.324,INVALID,360.0,VALID,0.0,
2019-03-10, 02:05:06,VALID,919.284,VALID,0.0,VALID,97.917,VALID,0.011,VALID,20.309,INVALID,360.0,VALID,0.0,
2019-03-10, 02:06:06,VALID,919.294,VALID,0.0,VALID,97.942,VALID,0.013,VALID,20.303,INVALID,360.0,VALID,0.0,
2019-03-10, 02:07:06,VALID,919.289,VALID,0.0,VALID,97.92,VALID,0.014,VALID,20.267,INVALID,360.0,VALID,0.0,
2019-03-10, 02:08:06,VALID,919.286,VALID,0.0,VALID,97.956,VALID,0.024,VALID,20.241,INVALID,360.0,VALID,0.0,
2019-03-10, 02:09:07,VALID,919.304,VALID,0.0,VALID,97.944,VALID,0.028,VALID,20.201,INVALID,360.0,VALID,0.0,
2019-03-10, 02:10:07,VALID,919.295,VALID,0.0,VALID,97.98,VALID,0.02,VALID,20.19,INVALID,360.0,VALID,0.0,
2019-03-10, 02:11:07,VALID,919.294,VALID,0.0,VALID,98.014,VALID,0.001,VALID,20.186,INVALID,360.0,VALID,0.0,
2019-03-10, 02:12:07,VALID,919.279,VALID,0.0,VALID,98.087,VALID,0.012,VALID,20.215,INVALID,360.0,VALID,0.0,
2019-03-10, 02:13:07,VALID,919.289,VALID,0.0,VALID,98.144,VALID,-0.001,VALID,20.215,INVALID,360.0,VALID,0.0,
2019-03-10, 02:14:07,VALID,919.269,VALID,0.0,VALID,98.337,VALID,-0.034,VALID,20.307,INVALID,360.0,VALID,0.0,
2019-03-10, 02:15:07,VALID,919.231,VALID,0.0,VALID,98.229,VALID,-0.036,VALID,20.274,INVALID,360.0,VALID,0.0,
2019-03-10, 02:16:07,VALID,919.183,VALID,0.0,VALID,98.224,VALID,-0.041,VALID,20.217,INVALID,360.0,VALID,0.0,
2019-03-10, 02:17:07,VALID,919.135,VALID,0.0,VALID,98.229,VALID,-0.039,VALID,20.192,INVALID,360.0,VALID,0.0,
2019-03-10, 02:18:07,VALID,919.115,VALID,0.0,VALID,98.317,VALID,-0.041,VALID,20.22,INVALID,360.0,VALID,0.0,
2019-03-10, 02:19:07,VALID,919.086,VALID,0.0,VALID,98.433,VALID,-0.04,VALID,20.274,INVALID,360.0,VALID,0.0,
2019-03-10, 02:20:07,VALID,919.068,VALID,0.0,VALID,98.398,VALID,-0.05,VALID,20.283,INVALID,360.0,VALID,0.0,
2019-03-10, 02:21:07,VALID,919.04,VALID,0.0,VALID,98.437,VALID,-0.051,VALID,20.312,INVALID,360.0,VALID,0.0,
2019-03-10, 02:22:07,VALID,919.03,VALID,0.0,VALID,98.464,VALID,-0.035,VALID,20.321,INVALID,360.0,VALID,0.0,
2019-03-10, 02:23:07,VALID,919.026,VALID,0.0,VALID,98.404,VALID,-0.044,VALID,20.295,INVALID,360.0,VALID,0.0,
2019-03-10, 02:24:07,VALID,919.006,VALID,0.0,VALID,98.382,VALID,-0.027,VALID,20.268,INVALID,360.0,VALID,0.0,
2019-03-10, 02:25:07,VALID,919.001,VALID,0.0,VALID,98.355,VALID,-0.031,VALID,20.238,INVALID,360.0,VALID,0.0,
2019-03-10, 02:26:07,VALID,918.997,VALID,0.0,VALID,98.374,VALID,-0.047,VALID,20.246,INVALID,360.0,VALID,0.0,
2019-03-10, 02:27:07,VALID,919.002,VALID,0.0,VALID,98.354,VALID,-0.05,VALID,20.224,INVALID,360.0,VALID,0.0,
2019-03-10, 02:28:07,VALID,919.008,VALID,0.0,VALID,98.328,VALID,-0.024,VALID,20.231,INVALID,360.0,VALID,0.0,
2019-03-10, 02:29:07,VALID,919.013,VALID,0.0,VALID,98.425,VALID,0.002,VALID,20.31,INVALID,360.0,VALID,0.0,
2019-03-10, 02:30:07,VALID,918.988,VALID,0.0,VALID,98.515,VALID,-0.005,VALID,20.38,INVALID,360.0,VALID,0.0,
2019-03-10, 02:31:07,VALID,918.959,VALID,0.0,VALID,98.427,VALID,-0.004,VALID,20.336,INVALID,360.0,VALID,0.0,
2019-03-10, 02:32:07,VALID,918.934,VALID,0.0,VALID,98.402,VALID,-0.018,VALID,20.345,INVALID,360.0,VALID,0.0,
2019-03-10, 02:33:07,VALID,918.94,VALID,0.0,VALID,98.49,VALID,-0.009,VALID,20.397,INVALID,360.0,VALID,0.0,
2019-03-10, 02:34:07,VALID,918.938,VALID,0.0,VALID,98.447,VALID,-0.013,VALID,20.388,INVALID,360.0,VALID,0.0,
2019-03-10, 02:35:07,VALID,918.917,VALID,0.0,VALID,98.436,VALID,-0.005,VALID,20.376,INVALID,360.0,VALID,0.0,
2019-03-10, 02:36:07,VALID,918.953,VALID,0.0,VALID,98.416,VALID,-0.018,VALID,20.362,INVALID,360.0,VALID,0.0,
2019-03-10, 02:37:07,VALID,918.986,VALID,0.0,VALID,98.456,VALID,-0.013,VALID,20.383,INVALID,360.0,VALID,0.0,
2019-03-10, 02:38:07,VALID,918.992,VALID,0.0,VALID,98.468,VALID,-0.008,VALID,20.402,INVALID,360.0,VALID,0.0,
2019-03-10, 02:39:07,VALID,918.974,VALID,0.0,VALID,98.425,VALID,-0.01,VALID,20.381,INVALID,360.0,VALID,0.0,
2019-03-10, 02:40:07,VALID,918.943,VALID,0.0,VALID,98.439,VALID,-0.006,VALID,20.383,INVALID,360.0,VALID,0.0,
2019-03-10, 02:41:07,VALID,918.885,VALID,0.0,VALID,98.436,VALID,-0.009,VALID,20.388,INVALID,360.0,VALID,0.0,
2019-03-10, 02:42:07,VALID,918.813,VALID,0.0,VALID,98.466,VALID,-0.015,VALID,20.427,INVALID,360.0,VALID,0.0,
2019-03-10, 02:43:07,VALID,918.762,VALID,0.0,VALID,98.56,VALID,0.005,VALID,20.503,INVALID,360.0,VALID,0.0,
2019-03-10, 02:44:07,VALID,918.706,VALID,0.0,VALID,98.503,VALID,0.032,VALID,20.469,INVALID,360.0,VALID,0.0,
2019-03-10, 02:45:07,VALID,918.693,VALID,0.0,VALID,98.474,VALID,0.016,VALID,20.455,INVALID,360.0,VALID,0.0,
2019-03-10, 02:46:07,VALID,918.698,VALID,0.0,VALID,98.486,VALID,0.025,VALID,20.44,INVALID,360.0,VALID,0.0,
2019-03-10, 02:47:07,VALID,918.709,VALID,0.0,VALID,98.459,VALID,0.039,VALID,20.435,INVALID,360.0,VALID,0.0,
2019-03-10, 02:48:07,VALID,918.732,VALID,0.0,VALID,98.531,VALID,0.017,VALID,20.468,INVALID,360.0,VALID,0.0,
2019-03-10, 02:49:07,VALID,918.743,VALID,0.0,VALID,98.564,VALID,0.022,VALID,20.49,INVALID,360.0,VALID,0.0,
2019-03-10, 02:50:07,VALID,918.775,VALID,0.0,VALID,98.522,VALID,0.019,VALID,20.473,INVALID,360.0,VALID,0.0,
2019-03-10, 02:51:07,VALID,918.73,VALID,0.0,VALID,98.552,VALID,0.018,VALID,20.486,INVALID,360.0,VALID,0.0,
2019-03-10, 02:52:07,VALID,918.698,VALID,0.0,VALID,98.525,VALID,0.021,VALID,20.483,INVALID,360.0,VALID,0.0,
2019-03-10, 02:53:07,VALID,918.655,VALID,0.0,VALID,98.563,VALID,0.011,VALID,20.504,INVALID,360.0,VALID,0.0,
2019-03-10, 02:54:07,VALID,918.603,VALID,0.0,VALID,98.606,VALID,0.009,VALID,20.549,INVALID,360.0,VALID,0.0,
2019-03-10, 02:55:07,VALID,918.607,VALID,0.0,VALID,98.601,VALID,0.008,VALID,20.563,INVALID,360.0,VALID,0.0,
2019-03-10, 02:56:07,VALID,918.596,VALID,0.0,VALID,98.571,VALID,0.018,VALID,20.557,INVALID,360.0,VALID,0.0,
2019-03-10, 02:57:07,VALID,918.61,VALID,0.0,VALID,98.584,VALID,0.01,VALID,20.571,INVALID,360.0,VALID,0.0,
2019-03-10, 02:58:07,VALID,918.593,VALID,0.0,VALID,98.566,VALID,0.028,VALID,20.56,INVALID,360.0,VALID,0.0,
2019-03-10, 02:59:07,VALID,918.625,VALID,0.0,VALID,98.469,VALID,0.002,VALID,20.492,INVALID,360.0,VALID,0.0,
2019-03-10, 03:00:07,VALID,918.639,VALID,0.0,VALID,98.437,VALID,0.001,VALID,20.437,INVALID,360.0,VALID,0.0,
2019-03-10, 03:01:07,VALID,918.654,VALID,0.0,VALID,98.379,VALID,0.01,VALID,20.377,INVALID,360.0,VALID,0.0,
2019-03-10, 03:02:07,VALID,918.633,VALID,0.0,VALID,98.422,VALID,0.011,VALID,20.36,INVALID,360.0,VALID,0.0,
2019-03-10, 03:03:07,VALID,918.64,VALID,0.0,VALID,98.447,VALID,-0.006,VALID,20.357,INVALID,360.0,VALID,0.0,
2019-03-10, 03:04:07,VALID,918.661,VALID,0.0,VALID,98.526,VALID,0.002,VALID,20.377,INVALID,360.0,VALID,0.0,
2019-03-10, 03:05:07,VALID,918.687,VALID,0.0,VALID,98.511,VALID,0.0,VALID,20.356,INVALID,360.0,VALID,0.0,
2019-03-10, 03:06:07,VALID,918.744,VALID,0.0,VALID,98.582,VALID,0.016,VALID,20.369,INVALID,360.0,VALID,0.0,
2019-03-10, 03:07:07,VALID,918.771,VALID,0.0,VALID,98.504,VALID,-0.002,VALID,20.32,INVALID,360.0,VALID,0.0,
2019-03-10, 03:08:07,VALID,918.789,VALID,0.0,VALID,98.514,VALID,0.016,VALID,20.277,INVALID,360.0,VALID,0.0,
2019-03-10, 03:09:07,VALID,918.733,VALID,0.0,VALID,98.523,VALID,0.009,VALID,20.244,INVALID,360.0,VALID,0.0,
2019-03-10, 03:10:07,VALID,918.709,VALID,0.0,VALID,98.47,VALID,-0.002,VALID,20.19,VALID,13.0,VALID,1.065,
2019-03-10, 03:11:07,VALID,918.743,VALID,0.0,VALID,98.405,VALID,0.006,VALID,20.1,VALID,36.0,VALID,0.709,
2019-03-10, 03:12:07,VALID,918.759,VALID,0.0,VALID,98.53,VALID,-0.008,VALID,20.178,VALID,12.0,VALID,0.829,
2019-03-10, 03:13:07,VALID,918.783,VALID,0.0,VALID,98.501,VALID,0.013,VALID,20.17,VALID,354.0,VALID,1.021,
2019-03-10, 03:14:07,VALID,918.794,VALID,0.0,VALID,98.475,VALID,0.034,VALID,20.133,VALID,356.0,VALID,1.364,
2019-03-10, 03:15:07,VALID,918.831,VALID,0.0,VALID,98.489,VALID,0.042,VALID,20.095,VALID,357.0,VALID,0.782,
2019-03-10, 03:16:07,VALID,918.876,VALID,0.0,VALID,98.622,VALID,0.03,VALID,20.154,VALID,13.0,VALID,0.179,
2019-03-10, 03:17:07,VALID,918.923,VALID,0.0,VALID,98.675,VALID,0.03,VALID,20.21,VALID,37.0,VALID,0.858,
2019-03-10, 03:18:07,VALID,918.954,VALID,0.0,VALID,98.679,VALID,0.033,VALID,20.226,INVALID,360.0,VALID,0.168,
2019-03-10, 03:19:07,VALID,918.954,VALID,0.0,VALID,98.68,VALID,0.029,VALID,20.192,INVALID,360.0,VALID,0.0,
2019-03-10, 03:20:07,VALID,918.96,VALID,0.0,VALID,98.641,VALID,0.025,VALID,20.156,VALID,32.0,VALID,1.163,
2019-03-10, 03:21:07,VALID,918.963,VALID,0.0,VALID,98.701,VALID,0.032,VALID,20.174,VALID,32.0,VALID,1.426,
2019-03-10, 03:22:07,VALID,918.939,VALID,0.0,VALID,98.669,VALID,0.029,VALID,20.136,VALID,32.0,VALID,1.352,
2019-03-10, 03:23:07,VALID,918.903,VALID,0.0,VALID,98.757,VALID,0.032,VALID,20.161,VALID,36.0,VALID,1.011,
2019-03-10, 03:24:07,VALID,918.852,VALID,0.0,VALID,98.733,VALID,0.035,VALID,20.142,VALID,30.0,VALID,1.246,
2019-03-10, 03:25:07,VALID,918.791,VALID,0.0,VALID,98.696,VALID,0.039,VALID,20.091,VALID,17.0,VALID,0.5,
2019-03-10, 03:26:07,VALID,918.699,VALID,0.0,VALID,98.704,VALID,0.033,VALID,20.077,VALID,23.0,VALID,0.449,
2019-03-10, 03:27:07,VALID,918.622,VALID,0.0,VALID,98.76,VALID,0.035,VALID,20.101,INVALID,360.0,VALID,0.227,
2019-03-10, 03:28:07,VALID,918.576,VALID,0.0,VALID,98.734,VALID,0.01,VALID,20.062,INVALID,360.0,VALID,0.007,
2019-03-10, 03:29:07,VALID,918.559,VALID,0.0,VALID,98.674,VALID,-0.034,VALID,20.006,INVALID,360.0,VALID,0.0,
2019-03-10, 03:30:07,VALID,918.536,VALID,0.0,VALID,98.73,VALID,-0.02,VALID,20.03,INVALID,360.0,VALID,0.0,
2019-03-10, 03:31:07,VALID,918.55,VALID,0.0,VALID,98.76,VALID,-0.024,VALID,20.039,INVALID,360.0,VALID,0.0,
2019-03-10, 03:32:07,VALID,918.585,VALID,0.0,VALID,98.733,VALID,-0.024,VALID,20.017,INVALID,360.0,VALID,0.0,
2019-03-10, 03:33:07,VALID,918.625,VALID,0.0,VALID,98.744,VALID,-0.023,VALID,20.018,INVALID,360.0,VALID,0.0,
2019-03-10, 03:34:07,VALID,918.647,VALID,0.0,VALID,98.784,VALID,-0.019,VALID,20.029,INVALID,360.0,VALID,0.13,
2019-03-10, 03:35:07,VALID,918.642,VALID,0.0,VALID,98.743,VALID,-0.014,VALID,20.01,VALID,30.0,VALID,1.407,
2019-03-10, 03:36:07,VALID,918.656,VALID,0.0,VALID,98.728,VALID,-0.017,VALID,19.981,VALID,23.0,VALID,1.1,
2019-03-10, 03:37:07,VALID,918.675,VALID,0.0,VALID,98.744,VALID,-0.025,VALID,19.98,VALID,15.0,VALID,0.626,
2019-03-10, 03:38:07,VALID,918.689,VALID,0.0,VALID,98.774,VALID,-0.038,VALID,19.99,INVALID,360.0,VALID,0.472,